Погода в Пархаре

Погода в Пархаре : погода сейчас, прогноз погоды и архив. Всё, что Вы хотите узнать о погоде в Пархаре!

Поиск расширенной информации на нашем сайте:

Другие новости

Новости СМИ2

Главная страница сайта

Новости сайта

03.07.2017

Напоминаем, что на нашем специализированном сайте Метеоцентр.Азия вы можете получить высокодетализированные автоматические прогнозы погоды по пунктам России, СНГ и мира в авиационном формате (включающие направление и скорость ветра, видимость, явления погоды, количество и форму облачности, нижнюю и верхнюю границу облачности).


Погода в Пархаре - сегодня

Время (UTC), дата Ветер
(°,м/с) 
Видим.   Явления Облачность Т
(°С)
Тd
(°С)
f(%) Тe
(°С)
Pmin
(гПа)
dP
(гПа)
Po
(мм)
O2
(г/м3)
Тmin Tmax R s Состояние
почвы
15 22.09.18 090 (В) н/о    3/0 средняя 
[Ac trans]
+23.7 +8.6 38 +24  1007.8  0.6  718  265    +30.2       
18 22.09.18 110 (В) н/о    6/3 1000 м средняя, верхняя 
[Sc|Ac trans|Ci fib]
+22.7 +8.4 40 +23  1010.7  2.5  720  266    +30.2       
21 22.09.18 тихо ()   н/о    3/0 верхняя 
[Ci fib]
+20 +9.8 52 +22  1010.2  -0.9  719  268           
00 23.09.18 360 (С) н/о    10/10 1000 м 
[Sc]
+18.6 +7.8 49 +20  1011.1  0.7  720  270           
03 23.09.18 тихо ()   10 км    9/6 1000 м средняя 
[Sc|Ac trans]
+19.4 +11 58 +23  1010.9  720  269  +16.5         
06 23.09.18 тихо ()   10 км    8/3 1000 м средняя 
[Sc|Ac trans]
+24.1 +12 47 +29  1010.6  0.6  720  264  +16.5         
09 23.09.18 160 (Ю) 10 км    3/0 верхняя 
[Ci fib]
+28.4 +4.6 22 +28  1008.1  -1.9  719  262           
12 23.09.18 110 (В) 10 км    3/0 верхняя 
[Ci fib]
+27.9 +5.9 25 +28  1007.6  -0.5  719  262           
15 23.09.18 тихо ()   н/о    3/0 верхняя 
[Ci fib]
+23.5 +8 37 +24  1008.6  0.3  719  265    +30.1       
18 23.09.18 360 (С) н/о    4/0 средняя 
[Ac trans]
+20.6 +6.4 40 +21  1010.7  1.5  720  269    +30.1       
21 23.09.18 360 (С) н/о    ясно 
+19.9 +3.8 35 +21  1010.4  -0.5  720  270           
00 24.09.18 020 (С) н/о    ясно 
+17.5 +4.8 43 +18  1010.4  -0.4  719  271           
03 24.09.18 040 (СВ) 20000 м    ясно 
+19.2 +6.4 43 +20  1010.5  0.3  719  270  +16.1         
06 24.09.18 110 (В) 20000 м    ясно 
+25.6 +8.9 35 +26  1008.6  -0.6  719  263  +16.1         
09 24.09.18 340 (С) 20000 м    ясно 
+30.9 +4.6 19 +31  1005.6  -2  718  259           
12 24.09.18 090 (В) 10 км    ясно 
+28.8 +7.3 26 +29  1004.4  -1.5  716  260           
15 24.09.18 110 (В) н/о    ясно 
+24.7 +7 32 +25  1006  0.9  717  264    +32       
18 24.09.18 020 (С) н/о    ясно 
+21.3 +6.5 38 +21  1007.7  0.9  718  267    +32       
21 24.09.18 360 (С) н/о    ясно 
+18.6 +7.4 48 +19  1008.5  0.4  718  270           
00 25.09.18 360 (С) н/о    ясно 
+16.8 +6.4 50 +17  1009.2  0.4  718  272           
03 25.09.18 020 (С) 20000 м    ясно 
+19.1 +7.6 47 +21  1010.2  1.2  719  270  +15.8         
06 25.09.18 200 (Ю) 20000 м    ясно 
+25.5 +9.3 36 +27  1008.5  -0.4  719  263  +15.8         
09 25.09.18 270 (З) 20000 м    ясно 
+29.6 +3.8 19 +30  1006.3  -1.5  718  260           
12 25.09.18 160 (Ю) 10 км    3/0 верхняя 
[Ci fib]
+29.2 +5.9 23 +29  1004.4  -1.9  716  260           
15 25.09.18 180 (Ю) н/о    5/0 верхняя 
[Ci fib]
+24.1 +6.8 33 +24  1005.3  716  264    +31.7       
Время (UTC), дата Ветер
(°,м/с) 
Видим.   Явления Облачность Т
(°С)
Тd
(°С)
f(%) Тe
(°С)
Pmin
(гПа)
dP
(гПа)
Po
(мм)
O2
(г/м3)
Тmin Tmax R s Состояние
почвы

Для получения пояснительной информации подведите курсор к названию столбца.

ПОГОДА в Пархаре - архив

Всё, что Вы хотите узнать о погоде в Пархаре - удобно и подробно!

Выберите нужную дату (начиная с 1 января 2015* года) и нажмите кнопку "Найти".
Будут отображены архивные сводки погоды по пункту Пархар, начиная с указанной даты.


Отображать данные в формате CSV (для использования в таблицах Excel)


Внимание! Наш архив погоды предназначен исключительно для личного некоммерческого использования в познавательных целях. Если Вам необходимы официальные справки о состоянии погоды (для производственных, юридических, коммерческих и т.п. целей), обращайтесь в органы Росгидромета.

*Примечание: данная дата относится к архиву по метеостанциям СССР (Россия, СНГ, Балтия).
Архив по метеостанциям Зарубежной Европы и Азии (кроме Китая) хранится 10 дней, по другим регионам земного шара (Китай, Африка, Америка, Австралия, Океания) - 1 день.

Пархар - район местоположения метеостанции


Название, широта, долгота, высота метеостанции:
Пархар 37.5°ш. 69.4°д. 448 м над ур. моря [Таджикистан]

Дополнительная информация

В oтличие oт бoльшинства пoгoдных сайтoв мы публикуем пoдрoбную метеoинфoрмацию в детальнoм прoфессиoнальнoм фoрмате.

Характеристики температуры и влажнoсти вoздуха измеряются на высoте 2 м в тени вдали oт зданий и деревьев.
Скoрoсть ветра измеряется на высoте 10 м (на урoвне рoста челoвека скoрoсть ветра ниже в 1.5-2 раза). Если метеoстанция нахoдится в гoрoде или в лесу, тo скoрoсть ветра занижена на 2-4 м/с пo сравнению с oткрытым местoм. Скoрoсть ветра над акватoриями крупных рек и oзёр, а также на вершинах хoлмoв на 2-5 м/с выше, чем в oбычных услoвиях.
Атмoсфернoе давление в разных тoчках местнoсти мoжет значительнo oтличаться oт давления на метеoстанции, в зависимoсти oт услoвий рельефа (при пoдъёме на 10 м давление пoнижается примернo на 1 мм рт.ст.).